Orbital Elements at Epoch 2459000.5 (2020-May-31.0) TDB
Reference: JPL 4 (heliocentric ecliptic J2000)
Element | Value | Uncertainty (1-sigma) | Units |
e | .4835322744841135 | 0.00054987 | |
a | 62.97137485499913 | 0.074359 | au |
q | 32.52268274396969 | 0.0039436 | au |
i | 20.07415479214326 | 0.00043673 | deg |
node | 238.3026168837657 | 0.00020926 | deg |
peri | 343.0334728093459 | 0.014862 | deg |
M | 16.90399544618863 | 0.033546 | deg |
tp | 2450430.120438708798 (1996-Dec-12.62043871) | 2.2759 | TDB |
period | 182521.1472569634 499.72 | 323.29 0.8851 | d yr |
n | .00197237419011602 | 3.4936e-06 | deg/d |
Q | 93.42006696602859 | 0.11031 | au |
|
| | Orbit Determination Parameters
Additional Information
|